Regional Weather Roundup
Issued by NWS Sioux Falls, SD

Home | Current Version | Previous Version | Text Only | Print | Product List | Glossary On
Versions: 1 2 3 4 5 6 7 8 9 10 11 12 13 14 15 16 17 18 19 20 21 22 23 24 25 26 27 28 29 30 31 32 33 34 35 36 37 38 39 40 41 42 43 44 45 46 47 48 49 50
000
ASUS43 KFSD 281510
RWRFSD

WEATHER ROUNDUP FOR SE SOUTH DAKOTA/SW MINNESOTA/NW IOWA
NATIONAL WEATHER SERVICE SIOUX FALLS SD
1000 AM CDT FRI AUG 28 2015

NOTE: "FAIR" INDICATES FEW OR NO CLOUDS BELOW 12,000 FEET WITH NO
SIGNIFICANT WEATHER AND OR OBSTRUCTIONS TO VISIBILITY.


SDZ038>040-050-052>070-281600-
SOUTHEAST SOUTH DAKOTA

CITY           SKY/WX    TMP DP  RH WIND       PRES   REMARKS
BROOKINGS      PTSUNNY   68  61  77 E12       29.97S
CHAMBERLAIN    CLOUDY    66  65  96 NE3       29.96R
HURON          PTSUNNY   70  65  84 E5        29.94R
MADISON        PTSUNNY   66  66 100 NE9       29.96R
MITCHELL       CLOUDY    68  65  90 NE10      29.94S
SIOUX FALLS    LGT RAIN  66  64  93 NE14      29.93R FOG
WINNER         CLOUDY    68  65  90 N8        29.97R
YANKTON        CLOUDY    64  63  94 NE14      29.88R
$$

MNZ071-072-080-081-089-090-097-098-281600-
SOUTHWEST MINNESOTA

CITY           SKY/WX    TMP DP  RH WIND       PRES   REMARKS
FAIRMONT       CLOUDY    64  57  77 E9        29.97R
JACKSON        CLOUDY    64  64 100 E15G23    29.96S
LUVERNE        CLOUDY    68  63  83 E10       29.93S
MARSHALL       CLOUDY    66  59  77 NE6       29.98S
MONTEVIDEO     MOSUNNY   72  70  94 S5        29.98S
PIPESTONE      PTSUNNY   68  63  83 SE13G18   29.95S
REDWOOD FALLS  MOSUNNY   71  64  78 E13       29.96S
TRACY          CLOUDY    69  64  85 E7        29.97R
WINDOM         CLOUDY    66  63  88 E14       29.96R
WORTHINGTON    CLOUDY    64  61  88 E13       29.95R
$$

IAZ001>003-012>014-020>022-031-032-NEZ013-014-SDZ071-281600-
NORTHWEST IOWA

CITY           SKY/WX    TMP DP  RH WIND       PRES   REMARKS
CHEROKEE       HVY RAIN  64  64 100 E8G16     29.85S
DENISON        CLOUDY    66  64  94 S21G32    29.81R
ESTHERVILLE    RAIN      63  62  97 E14       29.95S FOG
LE MARS        PTSUNNY   66  64  94 E9        29.85R
ORANGE CITY    CLOUDY    64  64 100 E9G16     29.87R
SHELDON        PTSUNNY   64  64 100 E17G24    29.87F FOG
SIOUX CITY     CLOUDY    67  63  87 N7        29.82R FOG
SPENCER        LGT RAIN  65  62  90 E17       29.90F FOG
STORM LAKE     CLOUDY    64  64 100 E9        29.87S FOG
$$

ABBREVIATIONS USED IN REMARKS
   TC - TEMPERATURE IN CELSIUS
  WCI - WIND CHILL INDEX
   HX - HEAT INDEX
  VSB - VISIBILITY




USA.gov is the U.S. government's official web portal to all federal, state and local government web resources and services.